SQ7OBH-15 Weather Reports


time (UTC)temp
F
wind
direction
speed
knots
gust
knots
rain 1hr
in
rain 24hr
in
rain mn
in
humidity
%
barometer
mb
20260905182619 56 258 6.1 9.6 0.05 0.00 0.00 90
20260905181618 56 258 7.8 13.0 0.03 0.00 0.00 90
20260905180617 56 300 5.2 12.2 0.00 0.00 0.00 88
20260905175616 55 194 1.7 3.5 0.00 0.00 0.00 91
20260905174615 55 211 2.6 3.5 0.00 0.00 0.00 89
20260905173613 56 194 3.5 5.2 0.00 0.00 0.00 88
20260905172613 56 228 4.3 5.2 0.00 0.00 0.00 86
20260905171612 57 246 5.2 8.7 0.01 0.00 0.00 86
20260905170610 57 268 7.8 12.2 0.01 0.00 0.00 84
20260905165609 58 258 11.3 20.9 0.01 0.00 0.00 83
20260905164608 61 255 3.5 7.8 0.00 0.00 0.00 71
20260905163607 61 270 4.3 5.2 0.00 0.00 0.00 75
20260905162606 61 318 5.2 8.7 0.00 0.00 0.00 74
20260905161606 62 306 6.1 8.7 0.00 0.00 0.00 69
20260905160605 63 225 8.7 13.0 0.00 0.00 0.00 66
20260905154602 67 251 12.2 18.2 0.00 0.00 0.00 50
20260905153558 67 242 11.3 20.0 0.00 0.00 0.00 48
20260905152558 67 238 12.2 17.4 0.00 0.00 0.00 50
20260905151557 68 222 12.2 18.2 0.00 0.00 0.00 48
20260905150555 68 257 10.4 14.8 0.00 0.00 0.00 49
20260905145554 68 224 12.2 20.0 0.00 0.00 0.00 47
20260905144553 68 251 11.3 17.4 0.00 0.00 0.00 50
20260905143551 68 228 12.2 19.1 0.00 0.00 0.00 49
20260905142551 69 231 12.2 19.1 0.00 0.00 0.00 45
20260905141549 68 245 13.9 20.0 0.00 0.00 0.00 48
20260905140549 69 229 14.8 20.9 0.00 0.00 0.00 46
20260905135548 68 235 13.9 19.1 0.00 0.00 0.00 48
20260905134546 68 240 13.9 19.1 0.00 0.00 0.00 51
20260905133545 68 236 12.2 17.4 0.00 0.00 0.00 51
20260905132544 67 248 10.4 14.8 0.00 0.00 0.00 53
20260905131543 66 238 12.2 17.4 0.00 0.00 0.00 55
20260905130543 67 256 13.0 19.1 0.00 0.00 0.00 53
20260905125542 67 262 12.2 19.1 0.00 0.00 0.00 55
20260905124540 66 257 13.0 18.2 0.00 0.00 0.00 56
20260905123539 66 253 11.3 17.4 0.00 0.00 0.00 57
20260905122538 65 238 11.3 18.2 0.00 0.00 0.00 60
20260905121538 65 251 10.4 16.5 0.00 0.00 0.00 58
20260905120536 65 246 10.4 14.8 0.00 0.00 0.00 59
20260905115535 65 240 10.4 13.9 0.00 0.00 0.00 57
20260905114534 65 252 10.4 14.8 0.00 0.00 0.00 58
20260905113533 65 260 12.2 18.2 0.00 0.00 0.00 55
20260905112531 65 245 12.2 17.4 0.00 0.00 0.00 57
20260905111531 65 234 13.0 18.2 0.00 0.00 0.00 56
20260905110530 65 241 13.9 19.1 0.00 0.00 0.00 58
20260905105529 65 241 13.9 20.0 0.00 0.00 0.00 57
20260905104528 65 251 13.9 22.6 0.00 0.00 0.00 58
20260905103526 65 228 13.9 22.6 0.00 0.00 0.00 57
20260905102526 65 270 13.0 20.0 0.00 0.00 0.00 59
20260905101525 64 240 13.9 21.7 0.00 0.00 0.00 60
20260905100524 64 240 12.2 20.0 0.00 0.00 0.00 65
20260905095522 64 277 13.0 19.1 0.00 0.00 0.00 63
20260905094521 63 244 12.2 19.1 0.00 0.00 0.00 64
20260905093520 64 258 12.2 20.0 0.00 0.00 0.00 64
20260905092519 64 258 13.0 20.9 0.00 0.00 0.00 64
20260905091518 62 246 13.9 19.1 0.00 0.00 0.00 68
20260905090517 63 244 13.0 20.0 0.00 0.00 0.00 69
20260905085516 63 251 15.6 24.3 0.00 0.00 0.00 66
20260905084515 63 235 14.8 20.9 0.00 0.00 0.00 68
20260905083514 63 245 15.6 22.6 0.00 0.00 0.00 69
20260905082513 63 240 13.9 22.6 0.00 0.00 0.00 70
20260905081512 62 251 13.0 20.0 0.00 0.00 0.00 71
20260905080511 63 246 13.9 18.2 0.00 0.00 0.00 71
20260905075510 62 228 13.9 19.1 0.00 0.00 0.00 73
20260905074509 62 242 13.0 19.1 0.00 0.00 0.00 73
20260905073508 62 264 13.0 20.9 0.00 0.00 0.00 76
20260905072506 62 246 12.2 18.2 0.00 0.00 0.00 75
20260905071505 61 234 13.0 18.2 0.00 0.00 0.00 76
20260905070504 61 262 12.2 18.2 0.00 0.00 0.00 77
20260905065503 61 251 12.2 17.4 0.00 0.00 0.00 78
20260905064502 61 243 10.4 15.6 0.00 0.00 0.00 79
20260905063501 61 246 12.2 19.1 0.00 0.00 0.00 80
20260905062500 61 238 12.2 17.4 0.00 0.00 0.00 80
20260905061458 60 242 11.3 17.4 0.00 0.00 0.00 82
20260905060457 60 231 10.4 16.5 0.00 0.00 0.00 82
20260905054555 60 252 12.2 19.1 0.00 0.00 0.00 82
20260905053554 60 240 12.2 17.4 0.00 0.00 0.00 83
20260905052553 60 228 10.4 13.9 0.00 0.00 0.00 83
20260905051552 60 264 9.6 13.0 0.00 0.00 0.00 83
20260905050551 60 240 8.7 12.2 0.00 0.00 0.00 85
20260905045550 60 249 9.6 13.0 0.00 0.00 0.00 85
20260905044549 60 246 9.6 12.2 0.00 0.00 0.00 84
20260905043548 60 243 9.6 13.0 0.00 0.00 0.00 84
20260905042547 60 228 10.4 13.9 0.00 0.00 0.00 84
20260905041545 60 252 11.3 14.8 0.00 0.00 0.00 84
20260905040545 60 232 9.6 13.0 0.00 0.00 0.00 84
20260905035543 61 246 11.3 13.9 0.00 0.00 0.00 84
20260905034542 61 256 10.4 13.9 0.00 0.00 0.00 84
20260905033541 60 237 10.4 14.8 0.00 0.00 0.00 85
20260905032540 61 238 10.4 13.9 0.00 0.00 0.00 85
20260905031539 61 243 11.3 14.8 0.00 0.00 0.00 85
20260905030538 61 252 10.4 13.9 0.00 0.00 0.00 85
20260905025537 61 246 10.4 14.8 0.00 0.00 0.00 83
20260905024536 61 240 10.4 14.8 0.00 0.00 0.00 85
20260905023535 61 233 11.3 14.8 0.00 0.00 0.00 85
20260905022535 61 222 10.4 16.5 0.00 0.00 0.00 85
20260905021533 61 234 10.4 13.9 0.00 0.00 0.00 86
20260905020531 61 221 10.4 17.4 0.00 0.00 0.00 86
20260905015531 61 234 10.4 14.8 0.00 0.00 0.00 87
20260905014530 61 228 10.4 13.0 0.00 0.00 0.00 87
20260905013528 61 240 10.4 16.5 0.00 0.00 0.00 87
20260905012527 61 234 10.4 14.8 0.00 0.00 0.00 87
20260905011526 61 222 10.4 13.9 0.00 0.00 0.00 87
20260905010525 61 227 10.4 13.9 0.00 0.00 0.00 87
20260905005523 61 233 11.3 17.4 0.00 0.00 0.00 88
20260905004522 61 243 10.4 15.6 0.00 0.00 0.00 89
20260905003521 61 226 11.3 18.2 0.00 0.00 0.00 89
20260905002520 61 240 11.3 16.5 0.00 0.00 0.00 88
20260905001519 61 231 11.3 17.4 0.00 0.00 0.00 89
20260905000517 61 246 10.4 13.9 0.01 0.00 0.00 89
20260904235516 60 234 10.4 18.2 0.01 0.00 0.00 89
20260904234515 61 232 12.2 16.5 0.01 0.00 0.00 88
20260904233514 61 240 13.0 18.2 0.00 0.00 0.00 86
20260904232513 61 234 12.2 18.2 0.00 0.00 0.00 86
20260904231512 61 240 12.2 19.1 0.00 0.00 0.00 86
20260904230511 62 228 13.9 22.6 0.01 0.00 0.00 84
20260904225510 62 222 13.9 20.9 0.01 0.00 0.00 82
20260904224509 63 240 13.9 19.1 0.01 0.00 0.00 81
20260904223508 64 234 13.9 18.2 0.00 0.00 0.00 79
20260904222507 64 211 12.2 18.2 0.00 0.00 0.00 80
20260904221506 64 243 10.4 14.8 0.00 0.00 0.00 83
20260904220505 64 222 10.4 14.8 0.00 0.00 0.00 84
20260904215504 64 221 7.8 15.6 0.00 0.00 0.00 86
20260904214503 65 222 9.6 13.9 0.00 0.00 0.00 87
20260904213502 65 227 8.7 13.0 0.00 0.00 0.00 88
20260904212500 65 192 8.7 11.3 0.00 0.00 0.00 90
20260904211459 65 216 7.8 13.0 0.00 0.00 0.00 91
20260904210457 64 210 7.0 12.2 0.00 0.00 0.00 93
20260904205457 64 243 7.0 11.3 0.00 0.00 0.00 92
20260904204456 64 226 8.7 11.3 0.00 0.00 0.00 89
20260904203455 64 234 7.0 9.6 0.00 0.00 0.00 89
20260904202454 64 240 7.8 9.6 0.00 0.00 0.00 89
20260904201453 64 251 7.0 10.4 0.00 0.00 0.00 89
20260904200451 65 252 7.8 10.4 0.00 0.00 0.00 88
20260904195450 64 274 8.7 11.3 0.00 0.00 0.00 88
20260904194449 64 246 8.7 12.2 0.01 0.00 0.00 91
20260904193447 64 272 9.6 14.8 0.05 0.00 0.00 91
20260904192447 65 260 12.2 18.2 0.05 0.00 0.00 93
20260904191446 66 256 17.4 34.8 0.04 0.00 0.00 91
20260904190444 72 250 13.0 24.3 0.00 0.00 0.00 72
20260904185443 75 196 8.7 14.8 0.00 0.00 0.00 63
20260904184442 74 191 7.0 13.0 0.00 0.00 0.00 63